| time (UTC) | temp F | wind direction | speed MPH | gust MPH | rain 1hr in | rain 24hr in | rain mn in | humidity % | barometer mb |
| 20260506062143 | 0 | 0.0 | 0.0 | 0.00 | 0.00 | 0.00 | 1008.5 | ||
| 20260506061639 | 0 | 0.0 | 0.0 | 0.00 | 0.00 | 0.00 | 1008.5 | ||
| 20260506061137 | 0 | 0.0 | 0.0 | 0.00 | 0.00 | 0.00 | 1008.5 | ||
| 20260506060635 | 0 | 0.0 | 0.0 | 0.00 | 0.00 | 0.00 | 1008.5 | ||
| 20260506060132 | 0 | 0.0 | 0.0 | 0.00 | 0.00 | 0.00 | 1008.5 | ||
| 20260506051104 | 0 | 0.0 | 0.0 | 0.00 | 0.00 | 0.00 | 1008.5 | ||
| 20260506050602 | 0 | 0.0 | 0.0 | 0.00 | 0.00 | 0.00 | 1008.5 | ||
| 20260506045052 | 0 | 0.0 | 0.0 | 0.00 | 0.00 | 0.00 | 1008.5 | ||
| 20260506044550 | 0 | 0.0 | 0.0 | 0.00 | 0.00 | 0.00 | 1008.5 | ||
| 20260506044046 | 0 | 0.0 | 0.0 | 0.00 | 0.00 | 0.00 | 1008.5 | ||
| 20260506043544 | 55 | 291 | 0.0 | 0.0 | 0.00 | 0.00 | 0.00 | 86 | 1008.5 |
| 20260506043042 | 55 | 291 | 0.0 | 0.0 | 0.00 | 0.00 | 0.00 | 86 | 1008.5 |
| 20260506042541 | 55 | 291 | 0.0 | 0.0 | 0.00 | 0.00 | 0.00 | 86 | 1008.5 |
| 20260506042038 | 55 | 291 | 0.0 | 0.0 | 0.00 | 0.00 | 0.00 | 86 | 1008.5 |
| 20260506041537 | 55 | 291 | 0.0 | 0.0 | 0.00 | 0.00 | 0.00 | 86 | 1008.5 |
| 20260506041033 | 55 | 291 | 0.0 | 0.0 | 0.00 | 0.00 | 0.00 | 87 | 1009.6 |
| 20260506040531 | 55 | 291 | 0.0 | 0.0 | 0.00 | 0.00 | 0.00 | 86 | 1009.6 |
| 20260506040027 | 55 | 291 | 0.0 | 0.0 | 0.00 | 0.00 | 0.00 | 86 | 1009.6 |
| 20260506035524 | 55 | 291 | 0.0 | 0.0 | 0.00 | 0.00 | 0.00 | 86 | 1008.5 |
| 20260506035021 | 55 | 291 | 0.0 | 0.0 | 0.00 | 0.00 | 0.00 | 86 | 1008.5 |
| 20260506034518 | 55 | 291 | 0.0 | 0.0 | 0.00 | 0.00 | 0.00 | 86 | 1008.5 |
| 20260506034015 | 55 | 291 | 0.0 | 0.0 | 0.00 | 0.00 | 0.00 | 86 | 1008.5 |
| 20260506033512 | 56 | 291 | 0.0 | 0.0 | 0.00 | 0.00 | 0.00 | 85 | 1008.5 |
| 20260506033009 | 56 | 291 | 0.0 | 0.0 | 0.00 | 0.00 | 0.00 | 85 | 1008.5 |
| 20260506032506 | 57 | 291 | 0.0 | 0.0 | 0.00 | 0.00 | 0.00 | 83 | 1008.5 |
| 20260506032003 | 57 | 291 | 0.0 | 0.0 | 0.00 | 0.00 | 0.00 | 82 | 1008.5 |
| 20260506031501 | 57 | 291 | 0.0 | 0.0 | 0.00 | 0.00 | 0.00 | 82 | 1008.5 |
| 20260506030958 | 57 | 291 | 0.0 | 0.0 | 0.00 | 0.00 | 0.00 | 82 | 1009.6 |
| 20260506030455 | 58 | 291 | 0.0 | 0.0 | 0.00 | 0.00 | 0.00 | 82 | 1009.6 |
| 20260506025952 | 58 | 291 | 0.0 | 0.0 | 0.00 | 0.00 | 0.00 | 81 | 1009.6 |
| 20260506025449 | 58 | 291 | 0.0 | 0.0 | 0.00 | 0.00 | 0.00 | 81 | 1008.5 |
| 20260506024946 | 58 | 291 | 0.0 | 0.0 | 0.00 | 0.00 | 0.00 | 81 | 1008.5 |
| 20260506024443 | 59 | 291 | 0.0 | 0.0 | 0.00 | 0.00 | 0.00 | 80 | 1008.5 |
| 20260506023938 | 59 | 291 | 0.0 | 0.0 | 0.00 | 0.00 | 0.00 | 79 | 1008.5 |
| 20260506023436 | 59 | 291 | 0.0 | 0.0 | 0.00 | 0.00 | 0.00 | 78 | 1008.5 |
| 20260506022932 | 60 | 291 | 0.0 | 0.0 | 0.00 | 0.00 | 0.00 | 77 | 1008.5 |
| 20260506022430 | 60 | 291 | 0.0 | 0.0 | 0.00 | 0.00 | 0.00 | 75 | 1008.5 |
| 20260506021928 | 61 | 291 | 0.0 | 0.0 | 0.00 | 0.00 | 0.00 | 75 | 1008.5 |
| 20260506021425 | 61 | 291 | 0.0 | 0.0 | 0.00 | 0.00 | 0.00 | 74 | 1008.5 |
| 20260506020921 | 61 | 291 | 0.0 | 0.0 | 0.00 | 0.00 | 0.00 | 73 | 1008.5 |
| 20260506020420 | 61 | 291 | 0.0 | 0.0 | 0.00 | 0.00 | 0.00 | 73 | 1008.5 |
| 20260506015916 | 62 | 291 | 0.0 | 0.0 | 0.00 | 0.00 | 0.00 | 74 | 1008.5 |
| 20260506015414 | 62 | 291 | 0.0 | 0.0 | 0.00 | 0.00 | 0.00 | 73 | 1009.6 |
| 20260506014910 | 62 | 291 | 0.0 | 0.0 | 0.00 | 0.00 | 0.00 | 73 | 1009.6 |
| 20260506014407 | 63 | 291 | 0.0 | 0.0 | 0.00 | 0.00 | 0.00 | 72 | 1009.6 |
| 20260506013904 | 63 | 291 | 0.0 | 0.0 | 0.00 | 0.00 | 0.00 | 69 | 1008.5 |
| 20260506013403 | 64 | 291 | 0.0 | 0.0 | 0.00 | 0.00 | 0.00 | 69 | 1008.5 |
| 20260506012858 | 64 | 291 | 0.0 | 0.0 | 0.00 | 0.00 | 0.00 | 68 | 1008.5 |
| 20260506012355 | 64 | 291 | 0.0 | 0.0 | 0.00 | 0.00 | 0.00 | 66 | 1008.5 |
| 20260506011852 | 64 | 291 | 0.0 | 0.0 | 0.00 | 0.00 | 0.00 | 66 | 1008.5 |
| 20260506011349 | 64 | 291 | 0.0 | 0.0 | 0.00 | 0.00 | 0.00 | 67 | 1008.5 |
| 20260506010846 | 65 | 291 | 0.0 | 0.0 | 0.00 | 0.00 | 0.00 | 66 | 1008.5 |
| 20260506010344 | 65 | 291 | 0.0 | 0.0 | 0.00 | 0.00 | 0.00 | 66 | 1008.5 |
| 20260506005841 | 66 | 291 | 0.0 | 0.0 | 0.00 | 0.00 | 0.00 | 63 | 1008.5 |
| 20260506005337 | 66 | 291 | 0.0 | 0.0 | 0.00 | 0.00 | 0.00 | 63 | 1008.5 |
| 20260506004833 | 66 | 291 | 0.0 | 0.0 | 0.00 | 0.00 | 0.00 | 63 | 1008.5 |
| 20260506004331 | 67 | 291 | 0.0 | 0.0 | 0.00 | 0.00 | 0.00 | 63 | 1008.5 |
| 20260506003827 | 67 | 291 | 0.0 | 0.0 | 0.00 | 0.00 | 0.00 | 62 | 1008.5 |
| 20260506003324 | 67 | 291 | 0.0 | 0.0 | 0.00 | 0.00 | 0.00 | 60 | 1008.5 |
| 20260506002820 | 68 | 291 | 0.0 | 0.0 | 0.00 | 0.00 | 0.00 | 60 | 1008.5 |
| 20260506002317 | 68 | 291 | 0.0 | 0.0 | 0.00 | 0.00 | 0.00 | 58 | 1008.5 |
| 20260506001812 | 69 | 292 | 0.0 | 0.0 | 0.00 | 0.00 | 0.00 | 58 | 1008.5 |
| 20260506001310 | 69 | 292 | 0.0 | 0.0 | 0.00 | 0.00 | 0.00 | 59 | 1008.5 |
| 20260506000806 | 70 | 292 | 0.0 | 0.0 | 0.00 | 0.00 | 0.00 | 57 | 1007.5 |
| 20260506000304 | 70 | 292 | 0.0 | 0.0 | 0.00 | 0.00 | 0.00 | 56 | 1007.5 |
| 20260505235801 | 70 | 292 | 0.0 | 0.0 | 0.00 | 0.00 | 0.00 | 54 | 1007.5 |
| 20260505235258 | 71 | 332 | 0.0 | 0.0 | 0.00 | 0.00 | 0.00 | 55 | 1007.5 |
| 20260505234755 | 71 | 334 | 0.0 | 0.0 | 0.00 | 0.00 | 0.00 | 54 | 1007.5 |
| 20260505234253 | 71 | 333 | 0.0 | 0.0 | 0.00 | 0.00 | 0.00 | 53 | 1007.5 |
| 20260505233749 | 72 | 333 | 0.0 | 0.0 | 0.00 | 0.00 | 0.00 | 53 | 1007.5 |
| 20260505233247 | 72 | 305 | 0.0 | 0.0 | 0.00 | 0.00 | 0.00 | 53 | 1007.5 |
| 20260505232744 | 72 | 19 | 0.0 | 0.0 | 0.00 | 0.00 | 0.00 | 53 | 1007.5 |
| 20260505232242 | 72 | 19 | 0.0 | 0.0 | 0.00 | 0.00 | 0.00 | 52 | 1007.5 |
| 20260505231738 | 72 | 18 | 0.0 | 0.0 | 0.00 | 0.00 | 0.00 | 52 | 1007.5 |
| 20260505231237 | 73 | 18 | 0.0 | 0.0 | 0.00 | 0.00 | 0.00 | 51 | 1007.5 |
| 20260505230735 | 73 | 18 | 0.0 | 0.0 | 0.00 | 0.00 | 0.00 | 50 | 1007.5 |
| 20260505230231 | 73 | 18 | 0.0 | 0.0 | 0.00 | 0.00 | 0.00 | 52 | 1007.5 |
| 20260505225728 | 73 | 246 | 0.0 | 0.0 | 0.00 | 0.00 | 0.00 | 49 | 1007.5 |
| 20260505225225 | 73 | 304 | 0.0 | 0.0 | 0.00 | 0.00 | 0.00 | 51 | 1007.5 |
| 20260505224720 | 74 | 248 | 0.0 | 0.0 | 0.00 | 0.00 | 0.00 | 51 | 1007.5 |
| 20260505224218 | 74 | 246 | 0.0 | 0.0 | 0.00 | 0.00 | 0.00 | 48 | 1007.5 |
| 20260505223716 | 74 | 244 | 0.0 | 0.0 | 0.00 | 0.00 | 0.00 | 48 | 1007.5 |
| 20260505223211 | 74 | 226 | 0.0 | 0.0 | 0.00 | 0.00 | 0.00 | 47 | 1007.5 |
| 20260505222708 | 74 | 237 | 0.0 | 0.0 | 0.00 | 0.00 | 0.00 | 48 | 1007.5 |
| 20260505222203 | 75 | 217 | 0.0 | 0.0 | 0.00 | 0.00 | 0.00 | 46 | 1007.5 |
| 20260505221701 | 75 | 246 | 0.0 | 0.0 | 0.00 | 0.00 | 0.00 | 46 | 1007.5 |
| 20260505221158 | 75 | 226 | 0.0 | 0.0 | 0.00 | 0.00 | 0.00 | 46 | 1007.5 |
| 20260505220655 | 75 | 223 | 0.0 | 0.0 | 0.00 | 0.00 | 0.00 | 48 | 1007.5 |
| 20260505220153 | 75 | 227 | 0.0 | 0.0 | 0.00 | 0.00 | 0.00 | 46 | 1007.5 |
| 20260505215650 | 75 | 234 | 0.0 | 0.0 | 0.00 | 0.00 | 0.00 | 48 | 1007.5 |
| 20260505215148 | 75 | 203 | 0.0 | 0.0 | 0.00 | 0.00 | 0.00 | 45 | 1006.5 |
| 20260505214646 | 75 | 244 | 0.0 | 0.0 | 0.00 | 0.00 | 0.00 | 46 | 1006.5 |
| 20260505214142 | 75 | 221 | 0.0 | 0.0 | 0.00 | 0.00 | 0.00 | 47 | 1006.5 |
| 20260505213640 | 76 | 242 | 0.0 | 0.0 | 0.00 | 0.00 | 0.00 | 46 | 1006.5 |
| 20260505213137 | 76 | 224 | 0.0 | 0.0 | 0.00 | 0.00 | 0.00 | 44 | 1007.5 |
| 20260505212632 | 75 | 250 | 0.0 | 0.0 | 0.00 | 0.00 | 0.00 | 45 | 1007.5 |
| 20260505212130 | 75 | 217 | 0.0 | 0.0 | 0.00 | 0.00 | 0.00 | 45 | 1007.5 |
| 20260505211627 | 74 | 225 | 0.0 | 0.0 | 0.00 | 0.00 | 0.00 | 46 | 1007.5 |
| 20260505211125 | 74 | 265 | 0.0 | 0.0 | 0.00 | 0.00 | 0.00 | 47 | 1007.5 |
| 20260505210621 | 75 | 239 | 0.0 | 0.0 | 0.00 | 0.00 | 0.00 | 47 | 1007.5 |
| 20260505210118 | 75 | 239 | 0.0 | 0.0 | 0.00 | 0.00 | 0.00 | 45 | 1006.5 |
| 20260505205615 | 76 | 226 | 9.0 | 13.0 | 0.00 | 0.00 | 0.00 | 43 | 1006.5 |
| 20260505205113 | 76 | 203 | 6.0 | 8.0 | 0.00 | 0.00 | 0.00 | 44 | 1006.5 |
| 20260505204610 | 76 | 221 | 2.0 | 5.0 | 0.00 | 0.00 | 0.00 | 44 | 1007.5 |
| 20260505204108 | 76 | 224 | 0.0 | 0.0 | 0.00 | 0.00 | 0.00 | 44 | 1007.5 |
| 20260505203604 | 76 | 224 | 0.0 | 0.0 | 0.00 | 0.00 | 0.00 | 45 | 1007.5 |
| 20260505203101 | 76 | 241 | 9.0 | 13.0 | 0.00 | 0.00 | 0.00 | 44 | 1006.5 |
| 20260505202557 | 76 | 248 | 2.0 | 6.0 | 0.00 | 0.00 | 0.00 | 43 | 1006.5 |
| 20260505202053 | 76 | 224 | 4.0 | 5.0 | 0.00 | 0.00 | 0.00 | 44 | 1006.5 |
| 20260505201550 | 76 | 184 | 10.0 | 13.0 | 0.00 | 0.00 | 0.00 | 43 | 1006.5 |
| 20260505201048 | 76 | 224 | 7.0 | 10.0 | 0.00 | 0.00 | 0.00 | 42 | 1006.5 |
| 20260505200545 | 76 | 250 | 10.0 | 13.0 | 0.00 | 0.00 | 0.00 | 43 | 1006.5 |
| 20260505200042 | 76 | 217 | 9.0 | 14.0 | 0.00 | 0.00 | 0.00 | 42 | 1007.5 |
| 20260505195538 | 77 | 223 | 9.0 | 13.0 | 0.00 | 0.00 | 0.00 | 42 | 1007.5 |
| 20260505195036 | 77 | 202 | 11.0 | 15.0 | 0.00 | 0.00 | 0.00 | 43 | 1007.5 |
| 20260505194533 | 77 | 236 | 7.0 | 13.0 | 0.00 | 0.00 | 0.00 | 42 | 1006.5 |
| 20260505194028 | 77 | 223 | 9.0 | 14.0 | 0.00 | 0.00 | 0.00 | 44 | 1006.5 |
| 20260505193525 | 77 | 239 | 15.0 | 17.0 | 0.00 | 0.00 | 0.00 | 44 | 1006.5 |
| 20260505193023 | 78 | 164 | 13.0 | 17.0 | 0.00 | 0.00 | 0.00 | 45 | 1007.5 |
| 20260505192521 | 78 | 226 | 7.0 | 7.0 | 0.00 | 0.00 | 0.00 | 47 | 1007.5 |
| 20260505192019 | 77 | 201 | 15.0 | 17.0 | 0.00 | 0.00 | 0.00 | 45 | 1007.5 |
| 20260505191516 | 77 | 202 | 2.0 | 5.0 | 0.00 | 0.00 | 0.00 | 46 | 1007.5 |
| 20260505191014 | 77 | 240 | 13.0 | 20.0 | 0.00 | 0.00 | 0.00 | 47 | 1007.5 |
| 20260505190509 | 77 | 225 | 13.0 | 15.0 | 0.00 | 0.00 | 0.00 | 47 | 1007.5 |
| 20260505190005 | 77 | 198 | 8.0 | 13.0 | 0.00 | 0.00 | 0.00 | 49 | 1007.5 |
| 20260505185502 | 77 | 201 | 9.0 | 11.0 | 0.00 | 0.00 | 0.00 | 48 | 1007.5 |
| 20260505184958 | 77 | 223 | 12.0 | 14.0 | 0.00 | 0.00 | 0.00 | 47 | 1007.5 |
| 20260505184455 | 77 | 203 | 19.0 | 30.0 | 0.00 | 0.00 | 0.00 | 46 | 1007.5 |
| 20260505183952 | 77 | 203 | 9.0 | 13.0 | 0.00 | 0.00 | 0.00 | 47 | 1007.5 |
| 20260505183449 | 77 | 227 | 15.0 | 17.0 | 0.00 | 0.00 | 0.00 | 47 | 1007.5 |
| 20260505182945 | 76 | 239 | 2.0 | 8.0 | 0.00 | 0.00 | 0.00 | 49 | 1007.5 |
| 20260505182442 | 76 | 236 | 11.0 | 15.0 | 0.00 | 0.00 | 0.00 | 49 | 1007.5 |
| 20260505181938 | 76 | 247 | 11.0 | 14.0 | 0.00 | 0.00 | 0.00 | 47 | 1007.5 |
| 20260505181436 | 76 | 201 | 9.0 | 10.0 | 0.00 | 0.00 | 0.00 | 50 | 1008.5 |
| 20260505180933 | 76 | 236 | 0.0 | 0.0 | 0.00 | 0.00 | 0.00 | 49 | 1008.5 |
| 20260505180429 | 77 | 223 | 7.0 | 13.0 | 0.00 | 0.00 | 0.00 | 47 | 1008.5 |
| 20260505175926 | 77 | 242 | 4.0 | 7.0 | 0.00 | 0.00 | 0.00 | 47 | 1008.5 |
| 20260505175422 | 77 | 202 | 6.0 | 8.0 | 0.00 | 0.00 | 0.00 | 47 | 1008.5 |
| 20260505174918 | 76 | 225 | 0.0 | 3.0 | 0.00 | 0.00 | 0.00 | 50 | 1008.5 |
| 20260505174416 | 76 | 200 | 0.0 | 0.0 | 0.00 | 0.00 | 0.00 | 50 | 1008.5 |
| 20260505173912 | 76 | 203 | 12.0 | 17.0 | 0.00 | 0.00 | 0.00 | 50 | 1008.5 |
| 20260505173408 | 76 | 223 | 6.0 | 7.0 | 0.00 | 0.00 | 0.00 | 53 | 1008.5 |
| 20260505172906 | 76 | 202 | 13.0 | 15.0 | 0.00 | 0.00 | 0.00 | 51 | 1008.5 |
| 20260505172404 | 76 | 247 | 13.0 | 16.0 | 0.00 | 0.00 | 0.00 | 50 | 1008.5 |
| 20260505171903 | 76 | 203 | 10.0 | 13.0 | 0.00 | 0.00 | 0.00 | 50 | 1008.5 |
| 20260505171400 | 76 | 225 | 8.0 | 11.0 | 0.00 | 0.00 | 0.00 | 50 | 1008.5 |
| 20260505170856 | 76 | 185 | 10.0 | 13.0 | 0.00 | 0.00 | 0.00 | 51 | 1008.5 |
| 20260505170354 | 76 | 224 | 8.0 | 8.0 | 0.00 | 0.00 | 0.00 | 51 | 1008.5 |
| 20260505165849 | 75 | 203 | 10.0 | 13.0 | 0.00 | 0.00 | 0.00 | 53 | 1008.5 |
| 20260505165344 | 76 | 222 | 10.0 | 11.0 | 0.00 | 0.00 | 0.00 | 53 | 1008.5 |
| 20260505164840 | 75 | 226 | 13.0 | 17.0 | 0.00 | 0.00 | 0.00 | 50 | 1008.5 |
| 20260505164337 | 75 | 201 | 9.0 | 11.0 | 0.00 | 0.00 | 0.00 | 51 | 1008.5 |
| 20260505163836 | 75 | 234 | 15.0 | 20.0 | 0.00 | 0.00 | 0.00 | 52 | 1008.5 |
| 20260505163334 | 75 | 225 | 7.0 | 7.0 | 0.00 | 0.00 | 0.00 | 52 | 1008.5 |
| 20260505162832 | 75 | 200 | 6.0 | 13.0 | 0.00 | 0.00 | 0.00 | 52 | 1009.6 |
| 20260505162328 | 74 | 224 | 10.0 | 13.0 | 0.00 | 0.00 | 0.00 | 55 | 1009.6 |
| 20260505161825 | 75 | 203 | 11.0 | 13.0 | 0.00 | 0.00 | 0.00 | 54 | 1009.6 |
| 20260505161322 | 75 | 226 | 9.0 | 10.0 | 0.00 | 0.00 | 0.00 | 53 | 1009.6 |
| 20260505160820 | 75 | 226 | 0.0 | 2.0 | 0.00 | 0.00 | 0.00 | 55 | 1009.6 |
| 20260505160318 | 74 | 248 | 7.0 | 11.0 | 0.00 | 0.00 | 0.00 | 58 | 1009.6 |
| 20260505153256 | 73 | 234 | 13.0 | 17.0 | 0.00 | 0.00 | 0.00 | 54 | 1009.6 |
| 20260505152753 | 73 | 234 | 13.0 | 17.0 | 0.00 | 0.00 | 0.00 | 53 | 1009.6 |
| 20260505152249 | 73 | 220 | 4.0 | 6.0 | 0.00 | 0.00 | 0.00 | 60 | 1009.6 |
| 20260505151744 | 73 | 198 | 5.0 | 13.0 | 0.00 | 0.00 | 0.00 | 54 | 1009.6 |
| 20260505151242 | 73 | 222 | 7.0 | 11.0 | 0.00 | 0.00 | 0.00 | 54 | 1009.6 |
| 20260505150738 | 73 | 237 | 13.0 | 15.0 | 0.00 | 0.00 | 0.00 | 55 | 1009.6 |
| 20260505150236 | 73 | 226 | 8.0 | 8.0 | 0.00 | 0.00 | 0.00 | 58 | 1009.6 |
| 20260505140200 | 70 | 218 | 0.0 | 0.0 | 0.00 | 0.00 | 0.00 | 59 | 1009.6 |
| 20260505130124 | 67 | 235 | 5.0 | 10.0 | 0.00 | 0.00 | 0.00 | 66 | 1010.6 |
| 20260505124613 | 69 | 201 | 0.0 | 0.0 | 0.00 | 0.00 | 0.00 | 61 | 1009.6 |
| 20260505124110 | 68 | 267 | 0.0 | 0.0 | 0.00 | 0.00 | 0.00 | 61 | 1009.6 |
| 20260505123606 | 67 | 280 | 0.0 | 0.0 | 0.00 | 0.00 | 0.00 | 65 | 1010.6 |
| 20260505123103 | 67 | 332 | 0.0 | 0.0 | 0.00 | 0.00 | 0.00 | 67 | 1010.6 |
| 20260505122559 | 65 | 256 | 0.0 | 0.0 | 0.00 | 0.00 | 0.00 | 67 | 1010.6 |
| 20260505122056 | 65 | 256 | 0.0 | 0.0 | 0.00 | 0.00 | 0.00 | 67 | 1010.6 |
| 20260505121553 | 65 | 5 | 0.0 | 0.0 | 0.00 | 0.00 | 0.00 | 67 | 1010.6 |
| 20260505121050 | 64 | 4 | 0.0 | 0.0 | 0.00 | 0.00 | 0.00 | 74 | 1010.6 |
| 20260505120546 | 64 | 4 | 0.0 | 0.0 | 0.00 | 0.00 | 0.00 | 74 | 1010.6 |
| 20260505120042 | 60 | 4 | 0.0 | 0.0 | 0.00 | 0.00 | 0.00 | 82 | 1010.6 |
| 20260505115536 | 60 | 4 | 0.0 | 0.0 | 0.00 | 0.00 | 0.00 | 82 | 1010.6 |
| 20260505115034 | 59 | 11 | 0.0 | 0.0 | 0.00 | 0.00 | 0.00 | 84 | 1010.6 |
| 20260505114530 | 58 | 11 | 0.0 | 0.0 | 0.00 | 0.00 | 0.00 | 87 | 1010.6 |
| 20260505114027 | 59 | 11 | 0.0 | 0.0 | 0.00 | 0.00 | 0.00 | 85 | 1010.6 |
| 20260505113518 | 59 | 11 | 0.0 | 0.0 | 0.00 | 0.00 | 0.00 | 85 | 1009.6 |
| 20260505113014 | 58 | 11 | 0.0 | 0.0 | 0.00 | 0.00 | 0.00 | 83 | 1009.6 |
| 20260505112510 | 56 | 11 | 0.0 | 0.0 | 0.00 | 0.00 | 0.00 | 86 | 1009.6 |
| 20260505112009 | 55 | 11 | 0.0 | 0.0 | 0.00 | 0.00 | 0.00 | 89 | 1009.6 |
| 20260505111503 | 54 | 11 | 0.0 | 0.0 | 0.00 | 0.00 | 0.00 | 89 | 1009.6 |
| 20260505110959 | 53 | 11 | 0.0 | 0.0 | 0.00 | 0.00 | 0.00 | 91 | 1009.6 |
| 20260505110455 | 53 | 11 | 0.0 | 0.0 | 0.00 | 0.00 | 0.00 | 91 | 1009.6 |
| 20260505101927 | 47 | 11 | 0.0 | 0.0 | 0.00 | 0.00 | 0.00 | 99 | 1008.5 |
| 20260505101427 | 47 | 11 | 0.0 | 0.0 | 0.00 | 0.00 | 0.00 | 99 | 1008.5 |
| 20260505100923 | 47 | 11 | 0.0 | 0.0 | 0.00 | 0.00 | 0.00 | 98 | 1008.5 |
| 20260505100420 | 47 | 11 | 0.0 | 0.0 | 0.00 | 0.00 | 0.00 | 98 | 1009.6 |
| 20260505095915 | 48 | 11 | 0.0 | 0.0 | 0.00 | 0.00 | 0.00 | 98 | 1009.6 |
| 20260505095413 | 48 | 11 | 0.0 | 0.0 | 0.00 | 0.00 | 0.00 | 98 | 1009.6 |
| 20260505094909 | 48 | 29 | 0.0 | 0.0 | 0.00 | 0.00 | 0.00 | 98 | 1009.6 |
| 20260505094406 | 48 | 29 | 0.0 | 0.0 | 0.00 | 0.00 | 0.00 | 98 | 1009.6 |
| 20260505093901 | 48 | 29 | 0.0 | 0.0 | 0.00 | 0.00 | 0.00 | 98 | 1009.6 |
| 20260505093359 | 49 | 29 | 0.0 | 0.0 | 0.00 | 0.00 | 0.00 | 98 | 1009.6 |
| 20260505092856 | 49 | 29 | 0.0 | 0.0 | 0.00 | 0.00 | 0.00 | 98 | 1009.6 |
| 20260505092354 | 49 | 29 | 0.0 | 0.0 | 0.00 | 0.00 | 0.00 | 98 | 1009.6 |
| 20260505091851 | 49 | 29 | 0.0 | 0.0 | 0.00 | 0.00 | 0.00 | 97 | 1009.6 |
| 20260505091349 | 49 | 29 | 0.0 | 0.0 | 0.00 | 0.00 | 0.00 | 97 | 1009.6 |
| 20260505090847 | 49 | 29 | 0.0 | 0.0 | 0.00 | 0.00 | 0.00 | 97 | 1009.6 |
| 20260505090345 | 49 | 29 | 0.0 | 0.0 | 0.00 | 0.00 | 0.00 | 97 | 1009.6 |
| 20260505085842 | 49 | 29 | 0.0 | 0.0 | 0.00 | 0.00 | 0.00 | 97 | 1009.6 |
| 20260505085340 | 49 | 29 | 0.0 | 0.0 | 0.00 | 0.00 | 0.00 | 96 | 1009.6 |
| 20260505084837 | 49 | 29 | 0.0 | 0.0 | 0.00 | 0.00 | 0.00 | 96 | 1008.5 |
| 20260505084335 | 49 | 29 | 0.0 | 0.0 | 0.00 | 0.00 | 0.00 | 96 | 1008.5 |
| 20260505083832 | 50 | 29 | 0.0 | 0.0 | 0.00 | 0.00 | 0.00 | 96 | 1008.5 |
| 20260505083330 | 50 | 29 | 0.0 | 0.0 | 0.00 | 0.00 | 0.00 | 96 | 1008.5 |
| 20260505082826 | 50 | 29 | 0.0 | 0.0 | 0.00 | 0.00 | 0.00 | 96 | 1008.5 |
| 20260505082323 | 50 | 29 | 0.0 | 0.0 | 0.00 | 0.00 | 0.00 | 96 | 1008.5 |
| 20260505081819 | 50 | 29 | 0.0 | 0.0 | 0.00 | 0.00 | 0.00 | 96 | 1009.6 |
| 20260505081316 | 51 | 29 | 0.0 | 0.0 | 0.00 | 0.00 | 0.00 | 95 | 1009.6 |
| 20260505080813 | 51 | 29 | 0.0 | 0.0 | 0.00 | 0.00 | 0.00 | 95 | 1009.6 |
| 20260505080309 | 51 | 30 | 0.0 | 0.0 | 0.00 | 0.00 | 0.00 | 94 | 1008.5 |
| 20260505075804 | 51 | 317 | 0.0 | 0.0 | 0.00 | 0.00 | 0.00 | 93 | 1008.5 |
| 20260505075304 | 50 | 311 | 0.0 | 0.0 | 0.00 | 0.00 | 0.00 | 94 | 1008.5 |
| 20260505074759 | 50 | 293 | 0.0 | 0.0 | 0.00 | 0.00 | 0.00 | 94 | 1008.5 |
| 20260505074256 | 50 | 293 | 0.0 | 0.0 | 0.00 | 0.00 | 0.00 | 93 | 1008.5 |
| 20260505073753 | 50 | 293 | 0.0 | 0.0 | 0.00 | 0.00 | 0.00 | 91 | 1008.5 |
| 20260505073251 | 51 | 293 | 0.0 | 0.0 | 0.00 | 0.00 | 0.00 | 90 | 1008.5 |
| 20260505072747 | 51 | 293 | 0.0 | 0.0 | 0.00 | 0.00 | 0.00 | 89 | 1008.5 |
| 20260505072244 | 51 | 293 | 0.0 | 0.0 | 0.00 | 0.00 | 0.00 | 88 | 1008.5 |
| 20260505071739 | 51 | 293 | 0.0 | 0.0 | 0.00 | 0.00 | 0.00 | 87 | 1008.5 |
| 20260505071236 | 52 | 293 | 0.0 | 0.0 | 0.00 | 0.00 | 0.00 | 85 | 1008.5 |
| 20260505070734 | 52 | 293 | 0.0 | 0.0 | 0.00 | 0.00 | 0.00 | 84 | 1008.5 |
| 20260505070230 | 52 | 293 | 0.0 | 0.0 | 0.00 | 0.00 | 0.00 | 84 | 1009.6 |
| 20260505065726 | 52 | 293 | 0.0 | 0.0 | 0.00 | 0.00 | 0.00 | 84 | 1009.6 |